When you browse on this site, cookies collect data to enhance your experience and personalize the content and advertising you see.
Visit our Privacy Policy to learn more. By continuing to use the site, you agree to this use of cookies and data.
  • In Latvia
  • List of Countries
  • For 7 days
  • Water Temperature
  • Weather Map
  • Weather Widgets
  • user-avatar
    Login

    Hourly Weather Sankt Polten

    Today, 2 April, Thursday

    Time Temperature Precipitation Wind Pressure Humidity
    00:00 0°C° 0 mm 1 mps 736 mmHg 61%
    01:00 0°C° 0 mm 1 mps 736 mmHg 59%
    02:00 0°C° 0 mm 1 mps 735 mmHg 59%
    03:00 0°C° 0 mm 1 mps 735 mmHg 59%
    04:00 0°C° 0 mm 1 mps 734 mmHg 58%
    05:00 +1°C° 0 mm 1 mps 735 mmHg 55%
    06:00 +1°C° 0 mm 0 mps 735 mmHg 51%
    07:00 +2°C° 0 mm 0 mps 735 mmHg 48%
    08:00 +5°C° 0 mm 0 mps 734 mmHg 44%
    09:00 +8°C° 0 mm 1 mps 734 mmHg 39%
    10:00 +11°C° 0 mm 1 mps 734 mmHg 35%
    11:00 +11°C° 0 mm 1 mps 733 mmHg 35%
    12:00 +12°C° 0 mm 1 mps 733 mmHg 34%
    13:00 +13°C° 0 mm 1 mps 733 mmHg 34%
    14:00 +13°C° 0 mm 1 mps 732 mmHg 35%
    15:00 +13°C° 0 mm 1 mps 731 mmHg 37%
    16:00 +13°C° 0 mm 1 mps 731 mmHg 39%
    17:00 +10°C° 0 mm 1 mps 731 mmHg 47%
    18:00 +8°C° 0 mm 1 mps 731 mmHg 56%
    19:00 +5°C° 0 mm 1 mps 731 mmHg 65%
    20:00 +5°C° 0 mm 1 mps 731 mmHg 67%
    21:00 +4°C° 0 mm 1 mps 731 mmHg 69%
    22:00 +3°C° 0 mm 2 mps 731 mmHg 70%
    23:00 +3°C° 0 mm 2 mps 731 mmHg 71%

    Tomorrow, 3 April, Friday

    Time Temperature Precipitation Wind Pressure Humidity
    00:00 +3°C° 0 mm 2 mps 732 mmHg 72%
    01:00 +2°C° 0 mm 2 mps 732 mmHg 73%
    02:00 +2°C° 0 mm 2 mps 732 mmHg 74%
    03:00 +2°C° 0 mm 2 mps 732 mmHg 76%
    04:00 +2°C° 0 mm 2 mps 732 mmHg 77%
    05:00 +3°C° 0 mm 2 mps 732 mmHg 76%
    06:00 +3°C° 0 mm 2 mps 733 mmHg 75%
    07:00 +4°C° 0 mm 2 mps 733 mmHg 74%
    08:00 +5°C° 0 mm 3 mps 733 mmHg 70%
    09:00 +6°C° 0 mm 5 mps 733 mmHg 65%
    10:00 +8°C° 0 mm 6 mps 733 mmHg 61%
    11:00 +9°C° 0 mm 5 mps 733 mmHg 58%
    12:00 +9°C° 0 mm 5 mps 734 mmHg 55%
    13:00 +10°C° 0 mm 5 mps 734 mmHg 53%
    14:00 +10°C° 0 mm 5 mps 734 mmHg 53%
    15:00 +11°C° 0 mm 4 mps 734 mmHg 53%
    16:00 +11°C° 0 mm 4 mps 734 mmHg 53%
    17:00 +9°C° 0 mm 3 mps 734 mmHg 61%
    18:00 +8°C° 0 mm 2 mps 735 mmHg 69%
    19:00 +6°C° 0 mm 2 mps 735 mmHg 77%
    20:00 +6°C° 0 mm 1 mps 736 mmHg 79%
    21:00 +6°C° 0 mm 1 mps 736 mmHg 81%
    22:00 +5°C° 0 mm 1 mps 737 mmHg 83%
    23:00 +5°C° 0 mm 1 mps 737 mmHg 83%

    Day after tomorrow, 4 April, Saturday

    Time Temperature Precipitation Wind Pressure Humidity
    00:00 +5°C° 0 mm 1 mps 738 mmHg 84%
    01:00 +5°C° 0 mm 1 mps 738 mmHg 84%
    02:00 +5°C° 0 mm 1 mps 738 mmHg 84%
    03:00 +5°C° 0 mm 1 mps 739 mmHg 85%
    04:00 +5°C° 0 mm 1 mps 739 mmHg 85%
    05:00 +5°C° 0 mm 1 mps 739 mmHg 84%
    06:00 +5°C° 0 mm 0 mps 740 mmHg 83%
    07:00 +6°C° 0 mm 0 mps 740 mmHg 82%
    08:00 +8°C° 0 mm 1 mps 741 mmHg 76%
    09:00 +10°C° 0 mm 1 mps 741 mmHg 70%
    10:00 +12°C° 0 mm 1 mps 741 mmHg 64%
    11:00 +12°C° 0 mm 1 mps 741 mmHg 61%
    12:00 +12°C° 0 mm 1 mps 741 mmHg 58%
    13:00 +13°C° 0 mm 1 mps 741 mmHg 55%
    14:00 +13°C° 0 mm 2 mps 741 mmHg 56%
    15:00 +12°C° 0 mm 2 mps 741 mmHg 57%
    16:00 +12°C° 0 mm 2 mps 740 mmHg 57%
    17:00 +9°C° 0 mm 2 mps 741 mmHg 65%
    18:00 +9°C° 0 mm 1 mps 741 mmHg 72%
    19:00 +7°C° 0 mm 1 mps 742 mmHg 80%
    20:00 +6°C° 0 mm 1 mps 742 mmHg 80%
    21:00 +6°C° 0 mm 1 mps 743 mmHg 81%
    22:00 +5°C° 0 mm 1 mps 743 mmHg 82%
    23:00 +5°C° 0 mm 1 mps 744 mmHg 82%

    5 April, Sunday

    Time Temperature Precipitation Wind Pressure Humidity
    00:00 +4°C° 0 mm 2 mps 744 mmHg 83%
    01:00 +3°C° 0 mm 2 mps 744 mmHg 83%
    02:00 +3°C° 0 mm 2 mps 744 mmHg 83%
    03:00 +3°C° 0 mm 2 mps 744 mmHg 84%
    04:00 +2°C° 0 mm 2 mps 744 mmHg 84%
    05:00 +3°C° 0 mm 2 mps 744 mmHg 81%
    06:00 +4°C° 0 mm 2 mps 744 mmHg 78%
    07:00 +5°C° 0 mm 2 mps 745 mmHg 75%
    08:00 +7°C° 0 mm 2 mps 745 mmHg 66%
    09:00 +9°C° 0 mm 3 mps 744 mmHg 57%
    10:00 +12°C° 0 mm 3 mps 744 mmHg 48%
    11:00 +13°C° 0 mm 4 mps 744 mmHg 45%
    12:00 +14°C° 0 mm 4 mps 744 mmHg 42%
    13:00 +15°C° 0 mm 5 mps 743 mmHg 39%
    14:00 +15°C° 0 mm 5 mps 743 mmHg 40%
    15:00 +15°C° 0 mm 5 mps 743 mmHg 41%
    16:00 +15°C° 0 mm 5 mps 742 mmHg 42%
    17:00 +13°C° 0 mm 4 mps 742 mmHg 48%
    18:00 +10°C° 0 mm 4 mps 743 mmHg 54%
    19:00 +7°C° 0 mm 4 mps 743 mmHg 60%
    20:00 +8°C° 0 mm 3 mps 743 mmHg 62%
    21:00 +7°C° 0 mm 3 mps 743 mmHg 65%
    22:00 +5°C° 0 mm 3 mps 744 mmHg 67%
    23:00 +5°C° 0 mm 3 mps 744 mmHg 69%

    6 April, Monday

    Time Temperature Precipitation Wind Pressure Humidity
    00:00 +4°C° 0 mm 3 mps 744 mmHg 72%
    01:00 +5°C° 0 mm 2 mps 743 mmHg 75%
    02:00 +5°C° 0 mm 2 mps 743 mmHg 77%
    03:00 +4°C° 0 mm 2 mps 743 mmHg 80%
    04:00 +4°C° 0 mm 2 mps 743 mmHg 82%
    05:00 +5°C° 0 mm 2 mps 743 mmHg 79%
    06:00 +6°C° 0 mm 2 mps 744 mmHg 76%
    07:00 +7°C° 0 mm 2 mps 744 mmHg 73%
    08:00 +10°C° 0 mm 3 mps 744 mmHg 64%
    09:00 +12°C° 0 mm 3 mps 744 mmHg 55%
    10:00 +14°C° 0 mm 4 mps 744 mmHg 47%
    11:00 +15°C° 0 mm 4 mps 744 mmHg 45%
    12:00 +16°C° 0 mm 5 mps 744 mmHg 42%
    13:00 +17°C° 0 mm 5 mps 744 mmHg 40%
    14:00 +16°C° 0 mm 5 mps 744 mmHg 39%
    15:00 +16°C° 0 mm 5 mps 743 mmHg 38%
    16:00 +15°C° 0 mm 5 mps 743 mmHg 38%
    17:00 +13°C° 0 mm 4 mps 743 mmHg 42%
    18:00 +11°C° 0 mm 4 mps 744 mmHg 46%
    19:00 +8°C° 0 mm 3 mps 744 mmHg 51%
    20:00 +7°C° 0 mm 3 mps 745 mmHg 54%
    21:00 +5°C° 0 mm 3 mps 745 mmHg 57%
    22:00 +6°C° 0 mm 2 mps 746 mmHg 60%
    23:00 +5°C° 0 mm 2 mps 746 mmHg 62%

    7 April, Tuesday

    Time Temperature Precipitation Wind Pressure Humidity
    00:00 +4°C° 0 mm 2 mps 746 mmHg 64%
    01:00 +5°C° 0 mm 1 mps 746 mmHg 65%
    02:00 +5°C° 0 mm 1 mps 747 mmHg 65%
    03:00 +4°C° 0 mm 1 mps 747 mmHg 65%
    04:00 +4°C° 0 mm 1 mps 747 mmHg 65%
    05:00 +5°C° 0 mm 1 mps 747 mmHg 62%
    06:00 +6°C° 0 mm 1 mps 748 mmHg 58%
    07:00 +7°C° 0 mm 1 mps 748 mmHg 55%
    08:00 +10°C° 0 mm 1 mps 748 mmHg 49%
    09:00 +13°C° 0 mm 1 mps 748 mmHg 43%
    10:00 +15°C° 0 mm 1 mps 748 mmHg 37%
    11:00 +16°C° 0 mm 2 mps 748 mmHg 36%
    12:00 +17°C° 0 mm 2 mps 748 mmHg 34%
    13:00 +18°C° 0 mm 3 mps 747 mmHg 33%
    14:00 +18°C° 0 mm 3 mps 747 mmHg 32%
    15:00 +18°C° 0 mm 3 mps 747 mmHg 32%
    16:00 +18°C° 0 mm 3 mps 746 mmHg 32%
    17:00 +14°C° 0 mm 3 mps 746 mmHg 39%
    18:00 +13°C° 0 mm 2 mps 746 mmHg 45%
    19:00 +9°C° 0 mm 2 mps 746 mmHg 52%
    20:00 +8°C° 0 mm 2 mps 747 mmHg 54%
    21:00 +7°C° 0 mm 2 mps 747 mmHg 56%
    22:00 +5°C° 0 mm 2 mps 747 mmHg 58%
    23:00 +5°C° 0 mm 2 mps 747 mmHg 60%
    Show more